Time,TemperatureF,DewpointF,PressureIn,WindDirection,WindDirectionDegrees,WindSpeedMPH,WindSpeedGustMPH,Humidity,HourlyPrecipIn,Conditions,Clouds,dailyrainin,SolarRadiationWatts/m^2,SoftwareType,DateUTC
2013-01-29 00:00:00,46.9,43.2,29.41,SSW,212,7.0,13.0,87,0.00,RA,,0.00,0.0,WeatherDisplay:10.37,2013-01-29 00:00:00,
2013-01-29 00:10:00,46.6,43.2,29.41,SW,216,5.0,9.0,88,0.00,CLR,,0.00,0.0,WeatherDisplay:10.37,2013-01-29 00:10:00,
2013-01-29 00:15:00,46.4,43.0,29.41,SW,215,3.0,10.0,88,0.00,CLR,,0.00,0.0,WeatherDisplay:10.37,2013-01-29 00:15:00,
2013-01-29 00:20:00,46.4,43.0,29.41,SW,215,7.0,12.0,88,0.00,CLR,,0.00,0.0,WeatherDisplay:10.37,2013-01-29 00:20:00,
2013-01-29 00:25:00,46.4,43.3,29.41,SW,214,6.0,12.0,89,0.00,CLR,,0.00,0.0,WeatherDisplay:10.37,2013-01-29 00:25:00,
2013-01-29 00:30:00,46.5,43.4,29.42,SSW,208,5.0,10.0,89,0.00,CLR,,0.00,0.0,WeatherDisplay:10.37,2013-01-29 00:30:00,
2013-01-29 00:40:00,46.5,43.1,29.41,SSW,201,3.0,10.0,88,0.00,CLR,,0.00,0.0,WeatherDisplay:10.37,2013-01-29 00:40:00,
2013-01-29 00:45:00,46.3,43.2,29.41,SSW,201,7.0,10.0,89,0.00,CLR,,0.00,0.0,WeatherDisplay:10.37,2013-01-29 00:45:00,
2013-01-29 00:50:00,46.2,43.1,29.41,SSW,203,7.0,12.0,89,0.00,CLR,,0.00,0.0,WeatherDisplay:10.37,2013-01-29 00:50:00,
2013-01-29 00:55:00,46.2,43.4,29.41,SSW,206,8.0,15.0,90,0.00,CLR,,0.00,0.0,WeatherDisplay:10.37,2013-01-29 00:55:00,
2013-01-29 01:00:00,46.2,43.1,29.41,SSW,210,6.0,12.0,89,0.00,CLR,,0.00,0.0,WeatherDisplay:10.37,2013-01-29 01:00:00,
2013-01-29 01:10:00,46.1,43.3,29.41,SSW,211,6.0,12.0,90,0.00,CLR,,0.00,0.0,WeatherDisplay:10.37,2013-01-29 01:10:00,
2013-01-29 01:15:00,46.2,43.4,29.41,SSW,213,7.0,12.0,90,0.00,CLR,,0.00,0.0,WeatherDisplay:10.37,2013-01-29 01:15:00,
2013-01-29 01:20:00,46.1,43.3,29.41,SSW,211,7.0,12.0,90,0.00,CLR,,0.00,0.0,WeatherDisplay:10.37,2013-01-29 01:20:00,
2013-01-29 01:25:00,46.0,43.2,29.41,SSW,206,7.0,12.0,90,0.00,CLR,,0.00,0.0,WeatherDisplay:10.37,2013-01-29 01:25:00,
2013-01-29 01:30:00,46.0,43.2,29.41,SSW,205,7.0,12.0,90,0.00,CLR,,0.00,0.0,WeatherDisplay:10.37,2013-01-29 01:30:00,
2013-01-29 01:40:00,45.9,43.4,29.40,SSW,207,8.0,13.0,91,0.00,CLR,,0.00,0.0,WeatherDisplay:10.37,2013-01-29 01:40:00,
2013-01-29 01:45:00,46.0,43.5,29.41,SSW,209,7.0,13.0,91,0.00,CLR,,0.00,0.0,WeatherDisplay:10.37,2013-01-29 01:45:00,
2013-01-29 01:55:00,46.1,43.9,29.40,SSW,205,7.0,12.0,92,0.00,CLR,,0.00,0.0,WeatherDisplay:10.37,2013-01-29 01:55:00,
2013-01-29 02:00:00,46.1,43.9,29.40,SSW,204,7.0,12.0,92,0.00,CLR,,0.00,0.0,WeatherDisplay:10.37,2013-01-29 02:00:00,
2013-01-29 02:10:00,46.1,43.6,29.40,SSW,207,7.0,12.0,91,0.00,CLR,,0.00,0.0,WeatherDisplay:10.37,2013-01-29 02:10:00,
2013-01-29 02:15:00,46.0,43.5,29.40,SSW,205,7.0,9.0,91,0.00,CLR,,0.00,0.0,WeatherDisplay:10.37,2013-01-29 02:15:00,
2013-01-29 02:25:00,45.7,43.3,29.40,South,190,5.0,8.0,91,0.00,CLR,,0.00,0.0,WeatherDisplay:10.37,2013-01-29 02:25:00,
2013-01-29 02:30:00,45.7,43.2,29.40,South,183,5.0,7.0,91,0.00,CLR,,0.00,0.0,WeatherDisplay:10.37,2013-01-29 02:30:00,
2013-01-29 02:40:00,45.4,43.0,29.41,South,183,3.0,5.0,91,0.00,CLR,,0.00,0.0,WeatherDisplay:10.37,2013-01-29 02:40:00,
2013-01-29 02:45:00,45.3,42.8,29.41,South,183,3.0,6.0,91,0.00,CLR,,0.00,0.0,WeatherDisplay:10.37,2013-01-29 02:45:00,
2013-01-29 02:55:00,45.1,42.9,29.41,South,183,3.0,6.0,92,0.00,CLR,,0.00,0.0,WeatherDisplay:10.37,2013-01-29 02:55:00,
2013-01-29 03:00:00,45.0,42.8,29.41,South,183,3.0,4.0,92,0.00,CLR,,0.00,0.0,WeatherDisplay:10.37,2013-01-29 03:00:00,
2013-01-29 03:10:00,44.8,42.6,29.40,South,183,3.0,5.0,92,0.00,CLR,,0.00,0.0,WeatherDisplay:10.37,2013-01-29 03:10:00,
2013-01-29 03:15:00,44.8,42.9,29.40,South,183,5.0,7.0,93,0.00,CLR,,0.00,0.0,WeatherDisplay:10.37,2013-01-29 03:15:00,
2013-01-29 03:25:00,45.0,43.1,29.39,South,184,3.0,9.0,93,0.00,CLR,,0.00,0.0,WeatherDisplay:10.37,2013-01-29 03:25:00,
2013-01-29 03:30:00,45.0,43.1,29.39,South,183,5.0,10.0,93,0.00,CLR,,0.00,0.0,WeatherDisplay:10.37,2013-01-29 03:30:00,
2013-01-29 03:40:00,45.1,43.2,29.39,South,181,5.0,8.0,93,0.00,CLR,,0.00,0.0,WeatherDisplay:10.37,2013-01-29 03:40:00,
2013-01-29 03:45:00,45.0,43.1,29.39,South,181,3.0,7.0,93,0.00,CLR,,0.00,0.0,WeatherDisplay:10.37,2013-01-29 03:45:00,
2013-01-29 03:50:00,45.0,43.1,29.40,South,180,5.0,8.0,93,0.00,CLR,,0.00,0.0,WeatherDisplay:10.37,2013-01-29 03:50:00,
2013-01-29 03:55:00,45.0,43.1,29.40,South,178,5.0,8.0,93,0.00,CLR,,0.00,0.0,WeatherDisplay:10.37,2013-01-29 03:55:00,
2013-01-29 04:00:00,44.9,43.0,29.39,South,177,6.0,8.0,93,0.00,CLR,,0.00,0.0,WeatherDisplay:10.37,2013-01-29 04:00:00,
2013-01-29 04:10:00,44.7,42.8,29.39,South,177,5.0,8.0,93,0.00,CLR,,0.00,0.0,WeatherDisplay:10.37,2013-01-29 04:10:00,
2013-01-29 04:15:00,44.6,42.7,29.38,South,176,6.0,10.0,93,0.00,CLR,,0.00,0.0,WeatherDisplay:10.37,2013-01-29 04:15:00,
2013-01-29 04:25:00,44.3,42.1,29.37,South,175,5.0,8.0,92,0.00,CLR,,0.00,0.0,WeatherDisplay:10.37,2013-01-29 04:25:00,
2013-01-29 04:30:00,44.2,42.0,29.37,South,175,5.0,9.0,92,0.00,CLR,,0.00,0.0,WeatherDisplay:10.37,2013-01-29 04:30:00,
2013-01-29 04:40:00,43.9,41.7,29.37,South,175,3.0,6.0,92,0.00,CLR,,0.00,0.0,WeatherDisplay:10.37,2013-01-29 04:40:00,
2013-01-29 04:45:00,43.7,41.5,29.37,South,175,3.0,6.0,92,0.00,CLR,,0.00,0.0,WeatherDisplay:10.37,2013-01-29 04:45:00,
2013-01-29 04:55:00,43.5,41.3,29.37,South,175,3.0,7.0,92,0.00,CLR,,0.00,0.0,WeatherDisplay:10.37,2013-01-29 04:55:00,
2013-01-29 05:05:00,43.5,41.6,29.36,SSE,150,5.0,7.0,93,0.00,CLR,,0.00,0.0,WeatherDisplay:10.37,2013-01-29 05:05:00,
2013-01-29 05:10:00,43.4,41.5,29.35,SSE,149,3.0,6.0,93,0.00,CLR,,0.00,0.0,WeatherDisplay:10.37,2013-01-29 05:10:00,
2013-01-29 05:15:00,43.4,41.5,29.35,SSE,149,5.0,8.0,93,0.00,CLR,,0.00,0.0,WeatherDisplay:10.37,2013-01-29 05:15:00,
2013-01-29 05:20:00,43.4,41.5,29.35,SSE,149,5.0,7.0,93,0.00,CLR,,0.00,0.0,WeatherDisplay:10.37,2013-01-29 05:20:00,
2013-01-29 05:25:00,43.4,41.5,29.35,SSE,148,6.0,9.0,93,0.00,CLR,,0.00,0.0,WeatherDisplay:10.37,2013-01-29 05:25:00,
2013-01-29 05:30:00,43.5,41.6,29.34,SSE,147,6.0,9.0,93,0.00,CLR,,0.00,0.0,WeatherDisplay:10.37,2013-01-29 05:30:00,
2013-01-29 05:35:00,43.6,41.7,29.34,SE,144,5.0,12.0,93,0.00,CLR,,0.00,0.0,WeatherDisplay:10.37,2013-01-29 05:35:00,
2013-01-29 05:40:00,43.7,41.8,29.34,SE,137,5.0,12.0,93,0.00,CLR,,0.00,0.0,WeatherDisplay:10.37,2013-01-29 05:40:00,
2013-01-29 05:45:00,43.9,41.7,29.34,SE,136,7.0,10.0,92,0.00,CLR,,0.00,0.0,WeatherDisplay:10.37,2013-01-29 05:45:00,
2013-01-29 05:50:00,44.0,41.8,29.33,SE,138,8.0,12.0,92,0.00,CLR,,0.00,0.0,WeatherDisplay:10.37,2013-01-29 05:50:00,
2013-01-29 05:56:00,44.1,41.6,29.33,SE,139,6.0,12.0,91,0.00,CLR,,0.00,0.0,WeatherDisplay:10.37,2013-01-29 05:56:00,
2013-01-29 06:01:00,44.1,41.6,29.33,SE,143,7.0,12.0,91,0.00,CLR,,0.00,0.0,WeatherDisplay:10.37,2013-01-29 06:01:00,
2013-01-29 06:10:00,44.2,41.7,29.32,SE,140,6.0,12.0,91,0.00,CLR,,0.00,0.0,WeatherDisplay:10.37,2013-01-29 06:10:00,
2013-01-29 06:15:00,44.3,41.8,29.31,SE,144,6.0,9.0,91,0.00,CLR,,0.00,0.0,WeatherDisplay:10.37,2013-01-29 06:15:00,
2013-01-29 06:21:00,44.4,41.9,29.31,SE,146,6.0,10.0,91,0.00,CLR,,0.00,0.0,WeatherDisplay:10.37,2013-01-29 06:21:00,
2013-01-29 06:31:00,44.8,42.6,29.30,SSE,152,9.0,15.0,92,0.00,CLR,,0.00,0.0,WeatherDisplay:10.37,2013-01-29 06:31:00,
2013-01-29 06:40:00,45.0,42.8,29.29,SSE,160,10.0,17.0,92,0.00,CLR,,0.00,0.0,WeatherDisplay:10.37,2013-01-29 06:40:00,
2013-01-29 06:46:00,45.1,42.9,29.28,SSE,155,10.0,17.0,92,0.00,CLR,,0.00,0.0,WeatherDisplay:10.37,2013-01-29 06:46:00,
2013-01-29 06:50:00,45.2,43.3,29.28,SSE,153,12.0,17.0,93,0.00,CLR,,0.00,0.0,WeatherDisplay:10.37,2013-01-29 06:50:00,
2013-01-29 06:55:00,45.3,43.4,29.27,SSE,156,12.0,17.0,93,0.00,CLR,,0.00,0.0,WeatherDisplay:10.37,2013-01-29 06:55:00,
2013-01-29 07:01:00,45.4,43.5,29.26,SSE,155,9.0,18.0,93,0.00,CLR,,0.00,0.0,WeatherDisplay:10.37,2013-01-29 07:01:00,
2013-01-29 07:11:00,45.7,43.8,29.25,SSE,153,10.0,18.0,93,0.00,CLR,,0.00,0.0,WeatherDisplay:10.37,2013-01-29 07:11:00,
2013-01-29 07:16:00,45.9,44.0,29.25,SSE,153,13.0,21.0,93,0.00,CLR,,0.00,0.0,WeatherDisplay:10.37,2013-01-29 07:16:00,
2013-01-29 07:21:00,46.1,44.2,29.24,SSE,150,14.0,25.0,93,0.00,CLR,,0.00,0.0,WeatherDisplay:10.37,2013-01-29 07:21:00,
2013-01-29 07:26:00,46.4,44.5,29.24,SSE,152,12.0,20.0,93,0.00,CLR,,0.00,0.0,WeatherDisplay:10.37,2013-01-29 07:26:00,
2013-01-29 07:31:00,46.5,44.6,29.24,SSE,160,14.0,20.0,93,0.02,RA,,0.02,0.0,WeatherDisplay:10.37,2013-01-29 07:31:00,
2013-01-29 07:41:00,46.2,44.3,29.24,SSE,158,9.0,19.0,93,0.00,,,0.02,0.0,WeatherDisplay:10.37,2013-01-29 07:41:00,
2013-01-29 07:46:00,46.2,44.3,29.23,SSE,151,9.0,16.0,93,0.00,CLR,,0.02,0.0,WeatherDisplay:10.37,2013-01-29 07:46:00,
2013-01-29 07:51:00,46.2,44.6,29.23,SE,145,12.0,20.0,94,0.00,CLR,,0.02,0.0,WeatherDisplay:10.37,2013-01-29 07:51:00,
2013-01-29 07:56:00,46.4,44.8,29.22,SSE,150,12.0,20.0,94,0.00,CLR,,0.02,0.0,WeatherDisplay:10.37,2013-01-29 07:56:00,
2013-01-29 08:01:00,46.6,45.0,29.22,SSE,149,10.0,15.0,94,0.00,OVC,,0.02,0.0,WeatherDisplay:10.37,2013-01-29 08:01:00,
2013-01-29 08:11:00,46.9,45.2,29.21,SSE,157,13.0,20.0,94,0.00,OVC,,0.02,0.0,WeatherDisplay:10.37,2013-01-29 08:11:00,
2013-01-29 08:16:00,46.9,45.3,29.21,SSE,159,13.0,18.0,94,0.00,OVC,,0.02,0.0,WeatherDisplay:10.37,2013-01-29 08:16:00,
2013-01-29 08:21:00,47.0,45.3,29.20,SSE,157,12.0,20.0,94,0.00,OVC,,0.02,0.0,WeatherDisplay:10.37,2013-01-29 08:21:00,
2013-01-29 08:26:00,47.0,45.4,29.20,SSE,154,13.0,18.0,94,0.00,OVC,,0.02,0.0,WeatherDisplay:10.37,2013-01-29 08:26:00,
2013-01-29 08:31:00,47.1,45.5,29.20,SSE,151,12.0,18.0,94,0.00,OVC,,0.02,0.0,WeatherDisplay:10.37,2013-01-29 08:31:00,
2013-01-29 08:41:00,47.1,45.5,29.19,SSE,157,10.0,17.0,94,0.00,OVC,,0.02,0.0,WeatherDisplay:10.37,2013-01-29 08:41:00,
2013-01-29 08:46:00,47.1,45.5,29.19,SSE,155,10.0,20.0,94,0.00,OVC,,0.02,0.0,WeatherDisplay:10.37,2013-01-29 08:46:00,
2013-01-29 08:51:00,47.1,45.8,29.19,SSE,152,7.0,14.0,95,0.00,BKN,,0.02,5.0,WeatherDisplay:10.37,2013-01-29 08:51:00,
2013-01-29 09:01:00,47.0,45.4,29.18,SE,145,9.0,15.0,94,0.00,BKN,,0.02,5.0,WeatherDisplay:10.37,2013-01-29 09:01:00,
2013-01-29 09:11:00,47.0,45.6,29.17,SE,139,8.0,13.0,95,0.00,BKN,,0.02,5.0,WeatherDisplay:10.37,2013-01-29 09:11:00,
2013-01-29 09:16:00,47.0,45.7,29.18,SSE,150,8.0,14.0,95,0.01,RA,,0.02,7.0,WeatherDisplay:10.37,2013-01-29 09:16:00,
2013-01-29 09:21:00,47.1,45.7,29.17,SSE,158,9.0,16.0,95,0.00,RA,,0.02,9.0,WeatherDisplay:10.37,2013-01-29 09:21:00,
2013-01-29 09:26:00,47.2,45.8,29.17,SSE,151,7.0,14.0,95,0.01,RA,,0.03,12.0,WeatherDisplay:10.37,2013-01-29 09:26:00,
2013-01-29 09:31:00,47.3,45.9,29.16,SE,144,8.0,14.0,95,0.00,RA,,0.03,14.0,WeatherDisplay:10.37,2013-01-29 09:31:00,
2013-01-29 09:41:00,47.5,46.4,29.15,SSE,152,10.0,18.0,96,0.01,RA,,0.04,11.0,WeatherDisplay:10.37,2013-01-29 09:41:00,
2013-01-29 09:51:00,47.9,46.8,29.14,SSE,148,10.0,20.0,96,0.00,BKN,,0.04,14.0,WeatherDisplay:10.37,2013-01-29 09:51:00,
2013-01-29 10:01:00,48.8,47.7,29.14,SSE,156,15.0,22.0,96,0.00,BKN,,0.04,16.0,WeatherDisplay:10.37,2013-01-29 10:01:00,
2013-01-29 10:11:00,49.0,47.9,29.15,SSE,152,13.0,22.0,96,0.00,BKN,,0.04,14.0,WeatherDisplay:10.37,2013-01-29 10:11:00,
2013-01-29 10:16:00,49.2,48.1,29.14,SSE,157,13.0,21.0,96,0.00,BKN,,0.04,12.0,WeatherDisplay:10.37,2013-01-29 10:16:00,
2013-01-29 10:26:00,51.4,50.5,29.14,South,169,18.0,25.0,97,0.00,BKN,,0.04,16.0,WeatherDisplay:10.37,2013-01-29 10:26:00,
2013-01-29 10:31:00,51.9,51.1,29.14,South,174,16.0,26.0,97,0.00,BKN,,0.04,18.0,WeatherDisplay:10.37,2013-01-29 10:31:00,
2013-01-29 10:41:00,52.2,51.1,29.13,South,172,14.0,29.0,96,0.00,BKN,,0.04,16.0,WeatherDisplay:10.37,2013-01-29 10:41:00,
2013-01-29 10:51:00,52.3,51.2,29.12,South,177,18.0,27.0,96,0.00,BKN,,0.04,19.0,WeatherDisplay:10.37,2013-01-29 10:51:00,
2013-01-29 11:01:00,52.6,51.5,29.11,South,180,15.0,27.0,96,0.00,BKN,,0.04,32.0,WeatherDisplay:10.37,2013-01-29 11:01:00,
2013-01-29 11:11:00,52.8,51.7,29.11,South,185,18.0,26.0,96,0.00,BKN,,0.04,30.0,WeatherDisplay:10.37,2013-01-29 11:11:00,
2013-01-29 11:21:00,53.0,51.6,29.11,South,180,17.0,27.0,95,0.00,BKN,,0.04,47.0,WeatherDisplay:10.37,2013-01-29 11:21:00,
2013-01-29 11:31:00,52.9,51.5,29.10,South,175,16.0,27.0,95,0.00,BKN,,0.04,30.0,WeatherDisplay:10.37,2013-01-29 11:31:00,
2013-01-29 11:41:00,52.9,51.8,29.10,South,177,16.0,26.0,96,0.00,BKN,,0.04,21.0,WeatherDisplay:10.37,2013-01-29 11:41:00,
2013-01-29 11:46:00,52.9,51.8,29.10,South,180,14.0,25.0,96,0.00,BKN,,0.04,26.0,WeatherDisplay:10.37,2013-01-29 11:46:00,
2013-01-29 11:51:00,52.9,51.8,29.10,South,185,16.0,27.0,96,0.00,BKN,,0.04,39.0,WeatherDisplay:10.37,2013-01-29 11:51:00,
2013-01-29 12:01:00,52.8,51.7,29.09,South,185,18.0,26.0,96,0.00,BKN,,0.04,44.0,WeatherDisplay:10.37,2013-01-29 12:01:00,
2013-01-29 12:11:00,52.5,51.4,29.10,South,185,14.0,24.0,96,0.00,RA,,0.05,46.0,WeatherDisplay:10.37,2013-01-29 12:11:00,
2013-01-29 12:16:00,52.4,51.3,29.09,SSW,197,16.0,27.0,96,0.01,RA,,0.05,86.0,WeatherDisplay:10.37,2013-01-29 12:16:00,
2013-01-29 12:21:00,52.4,51.3,29.09,SSW,199,21.0,32.0,96,0.01,RA,,0.06,49.0,WeatherDisplay:10.37,2013-01-29 12:21:00,
2013-01-29 12:26:00,52.5,51.4,29.10,SSW,209,22.0,31.0,96,0.00,RA,,0.06,25.0,WeatherDisplay:10.37,2013-01-29 12:26:00,
2013-01-29 12:31:00,51.4,49.8,29.11,SW,221,17.0,35.0,94,0.01,RA,,0.07,53.0,WeatherDisplay:10.37,2013-01-29 12:31:00,
2013-01-29 12:41:00,50.2,48.5,29.12,SW,222,16.0,26.0,94,0.00,BKN,,0.07,60.0,WeatherDisplay:10.37,2013-01-29 12:41:00,
2013-01-29 12:51:00,49.8,48.4,29.13,SW,216,13.0,25.0,95,0.00,BKN,,0.07,62.0,WeatherDisplay:10.37,2013-01-29 12:51:00,
2013-01-29 12:56:00,49.7,48.3,29.13,SSW,208,15.0,24.0,95,0.01,RA,,0.08,56.0,WeatherDisplay:10.37,2013-01-29 12:56:00,
2013-01-29 13:01:00,49.6,48.2,29.14,SSW,205,14.0,22.0,95,0.00,RA,,0.08,58.0,WeatherDisplay:10.37,2013-01-29 13:01:00,
2013-01-29 13:11:00,49.5,48.1,29.14,SSW,208,16.0,23.0,95,0.00,BKN,,0.08,60.0,WeatherDisplay:10.37,2013-01-29 13:11:00,
2013-01-29 13:16:00,49.4,48.0,29.14,SSW,208,12.0,24.0,95,0.00,BKN,,0.08,54.0,WeatherDisplay:10.37,2013-01-29 13:16:00,
2013-01-29 13:21:00,49.3,48.0,29.15,SSW,208,15.0,23.0,95,0.00,BKN,,0.08,69.0,WeatherDisplay:10.37,2013-01-29 13:21:00,
2013-01-29 13:31:00,49.4,47.7,29.15,SSW,205,13.0,23.0,94,0.00,BKN,,0.08,42.0,WeatherDisplay:10.37,2013-01-29 13:31:00,
2013-01-29 13:41:00,49.3,47.6,29.16,SSW,207,14.0,24.0,94,0.00,BKN,,0.08,46.0,WeatherDisplay:10.37,2013-01-29 13:41:00,
2013-01-29 13:46:00,49.3,47.7,29.16,SSW,209,16.0,24.0,94,0.00,BKN,,0.08,37.0,WeatherDisplay:10.37,2013-01-29 13:46:00,
2013-01-29 13:56:00,49.4,47.2,29.16,SSW,211,13.0,24.0,92,0.00,BKN,,0.08,30.0,WeatherDisplay:10.37,2013-01-29 13:56:00,
2013-01-29 14:01:00,49.4,46.9,29.16,SSW,206,14.0,22.0,91,0.00,BKN,,0.08,35.0,WeatherDisplay:10.37,2013-01-29 14:01:00,
2013-01-29 14:11:00,49.4,46.6,29.16,SSW,204,15.0,25.0,90,0.00,BKN,,0.08,47.0,WeatherDisplay:10.37,2013-01-29 14:11:00,
2013-01-29 14:16:00,49.4,46.6,29.17,SSW,205,16.0,30.0,90,0.00,BKN,,0.08,42.0,WeatherDisplay:10.37,2013-01-29 14:16:00,
2013-01-29 14:21:00,49.4,46.6,29.16,SSW,203,15.0,24.0,90,0.00,BKN,,0.08,49.0,WeatherDisplay:10.37,2013-01-29 14:21:00,
2013-01-29 14:26:00,49.4,46.6,29.16,SSW,207,14.0,23.0,90,0.00,BKN,,0.08,40.0,WeatherDisplay:10.37,2013-01-29 14:26:00,
2013-01-29 14:31:00,49.4,46.6,29.17,SSW,209,13.0,28.0,90,0.00,BKN,,0.08,40.0,WeatherDisplay:10.37,2013-01-29 14:31:00,
2013-01-29 14:41:00,49.5,46.4,29.17,SSW,209,13.0,23.0,89,0.00,BKN,,0.08,53.0,WeatherDisplay:10.37,2013-01-29 14:41:00,
2013-01-29 14:46:00,49.5,46.4,29.17,SSW,209,17.0,25.0,89,0.00,BKN,,0.08,44.0,WeatherDisplay:10.37,2013-01-29 14:46:00,
2013-01-29 14:51:00,49.5,47.0,29.18,SW,215,15.0,24.0,91,0.00,BKN,,0.08,49.0,WeatherDisplay:10.37,2013-01-29 14:51:00,
2013-01-29 15:01:00,49.5,46.1,29.18,SSW,213,14.0,22.0,88,0.00,BKN,,0.08,54.0,WeatherDisplay:10.37,2013-01-29 15:01:00,
2013-01-29 15:11:00,49.4,46.0,29.19,SSW,211,16.0,28.0,88,0.00,BKN,,0.08,54.0,WeatherDisplay:10.37,2013-01-29 15:11:00,
2013-01-29 15:16:00,49.4,46.0,29.19,SW,218,18.0,24.0,88,0.00,BKN,,0.08,54.0,WeatherDisplay:10.37,2013-01-29 15:16:00,
2013-01-29 15:26:00,49.2,45.5,29.20,SW,217,18.0,26.0,87,0.00,BKN,,0.08,49.0,WeatherDisplay:10.37,2013-01-29 15:26:00,
2013-01-29 15:31:00,49.1,45.1,29.20,SSW,213,20.0,29.0,86,0.00,BKN,,0.08,58.0,WeatherDisplay:10.37,2013-01-29 15:31:00,
2013-01-29 15:41:00,48.8,44.5,29.22,SW,223,15.0,25.0,85,0.00,BKN,,0.08,58.0,WeatherDisplay:10.37,2013-01-29 15:41:00,
2013-01-29 15:46:00,48.6,43.7,29.22,SW,221,17.0,24.0,83,0.00,BKN,,0.08,60.0,WeatherDisplay:10.37,2013-01-29 15:46:00,
2013-01-29 15:56:00,48.4,43.2,29.22,SW,215,15.0,27.0,82,0.00,BKN,,0.08,53.0,WeatherDisplay:10.37,2013-01-29 15:56:00,
2013-01-29 16:01:00,48.3,42.7,29.22,SW,219,18.0,30.0,81,0.00,BKN,,0.08,49.0,WeatherDisplay:10.37,2013-01-29 16:01:00,
2013-01-29 16:11:00,48.1,42.9,29.23,SW,220,15.0,26.0,82,0.00,SCT,,0.08,49.0,WeatherDisplay:10.37,2013-01-29 16:11:00,
2013-01-29 16:16:00,48.1,43.2,29.23,SW,220,13.0,24.0,83,0.00,BKN,,0.08,37.0,WeatherDisplay:10.37,2013-01-29 16:16:00,
2013-01-29 16:21:00,48.0,43.1,29.23,SW,214,14.0,23.0,83,0.00,BKN,,0.08,30.0,WeatherDisplay:10.37,2013-01-29 16:21:00,
2013-01-29 16:31:00,47.9,43.3,29.24,SW,224,15.0,22.0,84,0.00,BKN,,0.08,26.0,WeatherDisplay:10.37,2013-01-29 16:31:00,
2013-01-29 16:41:00,47.9,43.3,29.24,SW,216,13.0,23.0,84,0.00,FEW,,0.08,28.0,WeatherDisplay:10.37,2013-01-29 16:41:00,
2013-01-29 16:46:00,47.8,42.9,29.25,SW,236,18.0,28.0,83,0.00,CLR,,0.08,32.0,WeatherDisplay:10.37,2013-01-29 16:46:00,
2013-01-29 16:51:00,47.8,42.6,29.25,SW,226,17.0,27.0,82,0.00,CLR,,0.08,30.0,WeatherDisplay:10.37,2013-01-29 16:51:00,
2013-01-29 17:01:00,47.7,42.4,29.26,SW,222,15.0,26.0,82,0.00,SCT,,0.08,11.0,WeatherDisplay:10.37,2013-01-29 17:01:00,
2013-01-29 17:11:00,47.2,42.6,29.26,SSW,212,12.0,21.0,84,0.00,OVC,,0.08,5.0,WeatherDisplay:10.37,2013-01-29 17:11:00,
2013-01-29 17:16:00,47.1,42.5,29.26,SW,214,14.0,21.0,84,0.00,OVC,,0.08,0.0,WeatherDisplay:10.37,2013-01-29 17:16:00,
2013-01-29 17:21:00,47.2,42.3,29.27,SW,220,15.0,22.0,83,0.00,OVC,,0.08,0.0,WeatherDisplay:10.37,2013-01-29 17:21:00,
2013-01-29 17:26:00,47.4,42.2,29.27,SW,222,16.0,24.0,82,0.00,OVC,,0.08,0.0,WeatherDisplay:10.37,2013-01-29 17:26:00,
2013-01-29 17:31:00,47.3,42.1,29.27,SW,221,14.0,23.0,82,0.00,OVC,,0.08,0.0,WeatherDisplay:10.37,2013-01-29 17:31:00,
2013-01-29 17:41:00,46.8,41.9,29.28,SW,218,13.0,18.0,83,0.00,OVC,,0.08,0.0,WeatherDisplay:10.37,2013-01-29 17:41:00,
2013-01-29 17:46:00,46.7,42.1,29.28,SW,217,13.0,21.0,84,0.00,CLR,,0.08,0.0,WeatherDisplay:10.37,2013-01-29 17:46:00,
2013-01-29 17:51:00,46.5,42.0,29.28,SW,224,12.0,18.0,84,0.00,CLR,,0.08,0.0,WeatherDisplay:10.37,2013-01-29 17:51:00,
2013-01-29 18:01:00,46.4,41.8,29.29,SW,218,10.0,18.0,84,0.00,CLR,,0.08,0.0,WeatherDisplay:10.37,2013-01-29 18:01:00,
2013-01-29 18:11:00,46.6,42.3,29.30,SW,215,8.0,13.0,85,0.00,CLR,,0.08,0.0,WeatherDisplay:10.37,2013-01-29 18:11:00,
2013-01-29 18:16:00,46.7,42.4,29.30,SSW,211,10.0,18.0,85,0.00,CLR,,0.08,0.0,WeatherDisplay:10.37,2013-01-29 18:16:00,
2013-01-29 18:21:00,46.7,42.5,29.30,SW,215,12.0,22.0,85,0.00,CLR,,0.08,0.0,WeatherDisplay:10.37,2013-01-29 18:21:00,
2013-01-29 18:26:00,46.8,42.2,29.31,SW,224,10.0,21.0,84,0.00,CLR,,0.08,0.0,WeatherDisplay:10.37,2013-01-29 18:26:00,
2013-01-29 18:31:00,46.6,41.7,29.31,SW,223,12.0,21.0,83,0.00,CLR,,0.08,0.0,WeatherDisplay:10.37,2013-01-29 18:31:00,
2013-01-29 18:41:00,46.5,41.9,29.31,SW,214,9.0,23.0,84,0.00,CLR,,0.08,0.0,WeatherDisplay:10.37,2013-01-29 18:41:00,
2013-01-29 18:46:00,46.3,41.7,29.31,SW,218,10.0,16.0,84,0.00,CLR,,0.08,0.0,WeatherDisplay:10.37,2013-01-29 18:46:00,
2013-01-29 18:51:00,46.2,41.6,29.32,SW,220,13.0,21.0,84,0.00,CLR,,0.08,0.0,WeatherDisplay:10.37,2013-01-29 18:51:00,
2013-01-29 18:56:00,46.2,41.9,29.32,SW,222,9.0,16.0,85,0.00,CLR,,0.08,0.0,WeatherDisplay:10.37,2013-01-29 18:56:00,
2013-01-29 19:01:00,46.2,41.9,29.32,SW,218,8.0,16.0,85,0.00,CLR,,0.08,0.0,WeatherDisplay:10.37,2013-01-29 19:01:00,
2013-01-29 19:11:00,46.2,41.9,29.32,SW,220,7.0,13.0,85,0.00,CLR,,0.08,0.0,WeatherDisplay:10.37,2013-01-29 19:11:00,
2013-01-29 19:16:00,46.2,41.9,29.32,SW,217,9.0,16.0,85,0.00,CLR,,0.08,0.0,WeatherDisplay:10.37,2013-01-29 19:16:00,
2013-01-29 19:26:00,46.1,42.1,29.33,SW,215,6.0,10.0,86,0.00,CLR,,0.08,0.0,WeatherDisplay:10.37,2013-01-29 19:26:00,
2013-01-29 19:31:00,46.0,42.0,29.33,SSW,205,8.0,12.0,86,0.00,CLR,,0.08,0.0,WeatherDisplay:10.37,2013-01-29 19:31:00,
2013-01-29 19:41:00,46.0,42.3,29.33,SSW,202,9.0,14.0,87,0.00,CLR,,0.08,0.0,WeatherDisplay:10.37,2013-01-29 19:41:00,
2013-01-29 19:46:00,46.2,42.5,29.33,SSW,203,6.0,14.0,87,0.00,CLR,,0.08,0.0,WeatherDisplay:10.37,2013-01-29 19:46:00,
2013-01-29 19:51:00,46.2,42.5,29.33,SSW,203,6.0,10.0,87,0.00,CLR,,0.08,0.0,WeatherDisplay:10.37,2013-01-29 19:51:00,
2013-01-29 20:01:00,46.3,43.0,29.33,SSW,201,8.0,14.0,88,0.00,CLR,,0.08,0.0,WeatherDisplay:10.37,2013-01-29 20:01:00,
2013-01-29 20:11:00,46.7,43.0,29.33,SSW,203,9.0,16.0,87,0.00,CLR,,0.08,0.0,WeatherDisplay:10.37,2013-01-29 20:11:00,
2013-01-29 20:16:00,46.7,42.7,29.33,SSW,205,9.0,16.0,86,0.00,CLR,,0.08,0.0,WeatherDisplay:10.37,2013-01-29 20:16:00,
2013-01-29 20:26:00,46.7,42.7,29.33,SSW,213,8.0,16.0,86,0.00,CLR,,0.08,0.0,WeatherDisplay:10.37,2013-01-29 20:26:00,
2013-01-29 20:31:00,46.7,42.8,29.33,SSW,210,10.0,17.0,86,0.00,CLR,,0.08,0.0,WeatherDisplay:10.37,2013-01-29 20:31:00,
2013-01-29 20:41:00,46.7,42.7,29.33,SSW,208,8.0,15.0,86,0.00,CLR,,0.08,0.0,WeatherDisplay:10.37,2013-01-29 20:41:00,
2013-01-29 20:46:00,46.5,42.5,29.33,SSW,209,8.0,12.0,86,0.00,CLR,,0.08,0.0,WeatherDisplay:10.37,2013-01-29 20:46:00,
2013-01-29 20:56:00,46.3,42.6,29.33,SSW,201,8.0,12.0,87,0.00,CLR,,0.08,0.0,WeatherDisplay:10.37,2013-01-29 20:56:00,
2013-01-29 21:01:00,46.3,42.6,29.33,SSW,202,8.0,13.0,87,0.00,CLR,,0.08,0.0,WeatherDisplay:10.37,2013-01-29 21:01:00,
2013-01-29 21:11:00,46.2,42.5,29.33,SSW,205,6.0,12.0,87,0.00,CLR,,0.08,0.0,WeatherDisplay:10.37,2013-01-29 21:11:00,
2013-01-29 21:16:00,46.1,42.4,29.32,SSW,209,7.0,13.0,87,0.00,CLR,,0.08,0.0,WeatherDisplay:10.37,2013-01-29 21:16:00,
2013-01-29 21:26:00,45.7,41.8,29.33,SSW,208,7.0,12.0,86,0.00,CLR,,0.08,0.0,WeatherDisplay:10.37,2013-01-29 21:26:00,
2013-01-29 21:31:00,45.5,41.9,29.33,SSW,205,6.0,10.0,87,0.00,CLR,,0.08,0.0,WeatherDisplay:10.37,2013-01-29 21:31:00,
2013-01-29 21:41:00,45.1,41.8,29.33,SSW,204,5.0,9.0,88,0.00,CLR,,0.08,0.0,WeatherDisplay:10.37,2013-01-29 21:41:00,
2013-01-29 21:46:00,45.1,42.1,29.33,SSW,202,7.0,10.0,89,0.00,CLR,,0.08,0.0,WeatherDisplay:10.37,2013-01-29 21:46:00,
2013-01-29 21:51:00,45.3,42.3,29.33,SSW,204,8.0,10.0,89,0.00,CLR,,0.08,0.0,WeatherDisplay:10.37,2013-01-29 21:51:00,
2013-01-29 21:56:00,45.6,42.6,29.33,SSW,203,7.0,14.0,89,0.00,CLR,,0.08,0.0,WeatherDisplay:10.37,2013-01-29 21:56:00,
2013-01-29 22:06:00,45.9,43.1,29.32,South,189,6.0,10.0,90,0.00,CLR,,0.08,0.0,WeatherDisplay:10.37,2013-01-29 22:06:00,
2013-01-29 22:11:00,45.9,43.1,29.32,South,188,6.0,10.0,90,0.00,CLR,,0.08,0.0,WeatherDisplay:10.37,2013-01-29 22:11:00,
2013-01-29 22:16:00,45.9,43.1,29.32,SSW,192,7.0,12.0,90,0.00,CLR,,0.08,0.0,WeatherDisplay:10.37,2013-01-29 22:16:00,
2013-01-29 22:21:00,46.0,43.2,29.32,South,190,9.0,14.0,90,0.00,CLR,,0.08,0.0,WeatherDisplay:10.37,2013-01-29 22:21:00,
2013-01-29 22:26:00,46.2,43.4,29.31,SSW,192,7.0,14.0,90,0.00,CLR,,0.08,0.0,WeatherDisplay:10.37,2013-01-29 22:26:00,
2013-01-29 22:31:00,46.3,43.2,29.31,SSW,196,7.0,14.0,89,0.00,CLR,,0.08,0.0,WeatherDisplay:10.37,2013-01-29 22:31:00,
2013-01-29 22:41:00,46.4,43.6,29.31,South,190,6.0,13.0,90,0.00,CLR,,0.08,0.0,WeatherDisplay:10.37,2013-01-29 22:41:00,
2013-01-29 22:46:00,46.4,43.6,29.31,South,191,6.0,12.0,90,0.01,RA,,0.09,0.0,WeatherDisplay:10.37,2013-01-29 22:46:00,
2013-01-29 22:51:00,46.3,43.5,29.31,SSW,195,5.0,12.0,90,0.01,RA,,0.09,0.0,WeatherDisplay:10.37,2013-01-29 22:51:00,
2013-01-29 23:01:00,46.0,43.5,29.32,SW,216,12.0,20.0,91,0.02,RA,,0.13,0.0,WeatherDisplay:10.37,2013-01-29 23:01:00,
2013-01-29 23:11:00,44.9,42.5,29.33,SW,230,10.0,17.0,91,0.02,RA,,0.17,0.0,WeatherDisplay:10.37,2013-01-29 23:11:00,
2013-01-29 23:21:00,43.2,40.7,29.31,SW,234,9.0,20.0,91,0.00,RA,,0.20,0.0,WeatherDisplay:10.37,2013-01-29 23:21:00,
2013-01-29 23:26:00,42.8,40.6,29.31,SW,217,8.0,16.0,92,0.01,RA,,0.21,0.0,WeatherDisplay:10.37,2013-01-29 23:26:00,
2013-01-29 23:31:00,42.5,40.4,29.31,SSW,209,8.0,14.0,92,0.00,RA,,0.21,0.0,WeatherDisplay:10.37,2013-01-29 23:31:00,
2013-01-29 23:41:00,42.2,40.3,29.32,SSW,210,9.0,13.0,93,0.00,CLR,,0.21,0.0,WeatherDisplay:10.37,2013-01-29 23:41:00,
2013-01-29 23:46:00,42.1,40.2,29.32,SSW,206,7.0,14.0,93,0.00,CLR,,0.21,0.0,WeatherDisplay:10.37,2013-01-29 23:46:00,
2013-01-29 23:51:00,42.0,40.1,29.32,SSW,202,9.0,13.0,93,0.00,CLR,,0.21,0.0,WeatherDisplay:10.37,2013-01-29 23:51:00,